Location: Sungai Jaoh
(2.9167°N, 113.9167°E)
Time: 06:00:19
(UTC+00:00)

GPS 2-14 Rocket1 - Pass Details

Date: 30 November 2020
Orbit: 475 x 540 km, 20.7° (Epoch: 25 January)

Event Time Altitude Azimuth Distance (km) Brightness Sun altitude
Exits shadow 20:35:26 34° 195° (SSW) 894 3.9 -23.8°
Drops below altitude 10° 20:39:01 10° 136° (SE) 1,785 6.3 -22.9°
Sets 20:41:25 0° 127° (SE) 2,673 7.7 -22.4°
